Tracking 23762 objects as of 19-Oct-2021
HD Live streaming from Space Station
objects crossing your sky now

FLOCK 3R 5

Track FLOCK 3R 5 now!
10-day predictions
FLOCK 3R 5 is classified as:


NORAD ID: 43726
Int'l Code: 2018-096H
Perigee: 461.2 km
Apogee: 481.8 km
Inclination: 97.4 °
Period: 93.9 minutes
Semi major axis: 6842 km
RCS: Unknown
Launch date: November 29, 2018
Source: United States (US)
Launch site: SRIHARIKOTA (SRI)
aabbcc
Your satellite tracking list
Your tracking list is empty




NASA's NSSDC Master Catalog

Two Line Element Set (TLE):
1 43726U 18096H   21291.78112498  .00013296  00000-0  40694-3 0  9998
2 43726  97.3832  11.0770 0015075 184.7344 175.3758 15.33842289161145
Source of the keplerian elements: AFSPC